Home > Weather > Geneva > Past weeks

Flag for Switzerland Past Weather in Geneva, Geneva, Switzerland — Yesterday and Last 2 Weeks

Now
79 °F

Warm.


Feels Like: 79 °F
Forecast: 57 / 84 °F
Wind: 5 mph from West

Location: Geneve-Cointrin

Current Time: Jul 28, 2016 at 4:32:27 PM

Latest Report: Jul 28, 2016 at 3:00 PM


Visibility: N/A

Pressure: 30.02 "Hg

Humidity: 42%

Dew Point: 54 °F

Location of GenevaLocation

Past Weather in Geneva — Graph

°F

Geneva Temperature Yesterday

Maximum temperature yesterday: 82 °F (at 4:00 PM)
Minimum temperature yesterday: 63 °F (at 6:00 AM)
Average temperature yesterday: 72 °F

High & Low Weather Summary for the Past Weeks

 TemperatureHumidityPressure
High90 °F (Jul 20, 5:00 PM)96% (Jul 24, 5:00 AM)30.31 "Hg (Jul 24, 5:00 AM)
Low47 °F (Jul 15, 6:00 AM)21% (Jul 18, 6:00 PM)29.90 "Hg (Jul 21, 4:00 PM)
Average69 °F67%30.09 "Hg
* Reported Jul 13 3:00 PM — Jul 28 3:00 PM, Geneva, Weather by CustomWeather, © 2016

Note: Actual official high and low records may vary slightly from our data, if they occured in-between our weather recording intervals... More about our weather records

Advertising

Geneva Weather History for the Previous 24 Hours

Scroll right to see more
 ConditionsComfort  
Time TempWeatherWind HumidityBarometerVisibility
3:00 PM
Thu, Jul 28
79 °FWarm.5 mph42%30.02 "HgN/A
2:00 PM77 °FPartly sunny.3 mph46%30.03 "Hg28 mi
1:00 PM77 °FMild.5 mph45%30.04 "HgN/A
12:00 PM76 °FMild.2 mph49%30.05 "HgN/A
11:00 AM74 °FScattered clouds.3 mph56%30.06 "Hg28 mi
10:00 AM70 °FMild.2 mph61%30.08 "HgN/A
9:00 AM67 °FMild.2 mph70%30.09 "HgN/A
8:00 AM63 °FScattered clouds.2 mph76%30.09 "Hg28 mi
7:00 AM59 °FCool.2 mph82%30.10 "HgN/A
6:00 AM58 °FCool.3 mph89%30.10 "HgN/A
5:00 AM59 °FPassing clouds.1 mph84%30.10 "Hg19 mi
4:00 AM60 °FCool.1 mph81%30.10 "HgN/A
3:00 AM62 °FCool.2 mph76%30.10 "HgN/A
2:00 AM63 °FPassing clouds.2 mph73%30.10 "Hg25 mi
1:00 AM66 °FMild.1 mph63%30.09 "HgN/A
12:00 AM65 °FMild.2 mph66%30.09 "HgN/A
11:00 PM
Wed, Jul 27
66 °FPassing clouds.3 mph62%30.09 "Hg25 mi
10:00 PM72 °FMild.3 mph48%30.06 "HgN/A
9:00 PM74 °FMild.3 mph43%30.03 "HgN/A
8:00 PM76 °FScattered clouds.3 mph44%30.01 "Hg25 mi
7:00 PM79 °FWarm.5 mph41%29.99 "HgN/A
6:00 PM78 °FWarm.7 mph45%29.99 "HgN/A
5:00 PM81 °FOvercast.7 mph41%29.99 "Hg25 mi
4:00 PM82 °FWarm.3 mph44%29.98 "HgN/A
Weather by CustomWeather, © 2016

See weather overviewHow to use our weather pages